Regional Weather Roundup
Issued by NWS

Home | Current Version | Previous Version | Text Only | Print | Product List | Glossary Off
Versions: 1 2 3 4 5 6 7 8 9 10 11 12 13 14 15 16 17 18 19 20 21 22 23 24 25 26 27 28 29 30 31 32 33 34 35 36 37 38 39 40 41 42 43 44 45 46 47 48 49 50

073
ASUS43 KMPX 260501
RWRMN
WEATHER ROUNDUP FOR MINNESOTA
NATIONAL WEATHER SERVICE TWIN CITIES/CHANHASSEN MN
1200 AM CDT FRI AUG 26 2016


NOTE: "FAIR" INDICATES FEW OR NO CLOUDS BELOW 12,000 FEET WITH NO
SIGNIFICANT WEATHER AND/OR OBSTRUCTIONS TO VISIBILITY. N/A MEANS
CURRENT SKY AND/OR WEATHER CONDITIONS ARE NOT AVAILABLE.

MNZ060>063-068>070-260600-
   Twin Cities Metro

CITY           SKY/WX    TMP DP  RH WIND       PRES   REMARKS
TWIN CITIES    FAIR      63  54  72 SW5       30.13R
ST PAUL        FAIR      61  54  77 W5        30.13R
CRYSTAL        FAIR      61  53  75 W6        30.11R
BLAINE         FAIR      63  55  77 W3        30.12R
LAKEVILLE      FAIR      57  54  88 W5        30.13S
EDEN PRAIRIE   FAIR      59  53  80 W6        30.12R
LAKEVILLE      FAIR      57  54  88 W5        30.13S
SOUTH ST PAUL  FAIR      61  54  78 SW5       30.12R
LAKE ELMO      FAIR      57  54  88 W5        30.13R
$$
MNZ001>005-007-008-013>017-022>024-027-028-260600-
   Northwest Minnesota

CITY           SKY/WX    TMP DP  RH WIND       PRES   REMARKS
BEMIDJI        FAIR      50  48  93 CALM      30.09R
HALLOCK        FAIR      52  48  87 CALM      30.04S
ROSEAU         FAIR      52  46  82 SW5       30.05R
WARROAD        FAIR      52  48  87 CALM      30.05S
THIEF RVR FALL FAIR      52  49  89 S5        30.08R
CROOKSTON      FAIR      52  46  82 S7        30.08R
FOSSTON        FAIR      46  45  93 S6        30.10R
DETROIT LAKES  FAIR      59  52  77 W5        30.12R
MOORHEAD       FAIR      55  52  88 S6        30.11R
PARK RAPIDS    FAIR      52  49  89 CALM      30.10R
MAHNOMEN       MOCLDY    52  50  92 S6        30.10R
$$
MNZ006-009>011-018-025>026-260600-
   North Central Minnesota

CITY           SKY/WX    TMP DP  RH WIND       PRES   REMARKS
BAUDETTE       FAIR      50  48  93 SW6       30.04S
FLAG ISLAND    FAIR      61  48  63 CALM      30.02S
INTL FALLS     MOCLDY    54  52  93 CALM      30.05R
WASKISH        FAIR      61  52  72 W6        30.06S
BIG FORK       CLOUDY    57  54  88 CALM      30.07R
LONGVILLE      FAIR      52  50  93 CALM      30.09R
GRAND RAPIDS   FAIR      53  52  96 CALM      30.10R
ORR            CLOUDY    57  52  82 CALM      30.04R
COOK           FAIR      54  54 100 CALM      30.06R
WALKER         FAIR      50  49  98 CALM      30.10R
$$
MNZ012-019>021-037-260600-
   Northeast Minnesota

CITY           SKY/WX    TMP DP  RH WIND       PRES   REMARKS
DULUTH         CLOUDY    59  53  80 W8        30.06R
ELY            CLOUDY    55  54  94 W3        30.04R
HIBBING        CLOUDY    56  53  90 NW8       30.06R
EVELETH        CLOUDY    58  53  85 NW7       30.06R
DULUTH HARBOR  CLOUDY    63  55  77 W12       30.05S
TWO HARBORS    FAIR      61  55  82 W5        30.02S
SILVER BAY     CLOUDY    61  55  82 CALM      30.02R
G MARAIS ARPRT CLOUDY    55  52  88 NW5       30.02R
$$
MNZ029>031-032-039>041-046>048-054>057-064-260600-
   West Central Minnesota

CITY           SKY/WX    TMP DP  RH WIND       PRES   REMARKS
FERGUS FALLS   FAIR      54  54 100 SW3       30.14R
WHEATON        FAIR      57  55  94 SW3       30.16R
MORRIS         FAIR      54  54 100 W5        30.13S
ALEXANDRIA     FAIR      56  54  93 SW7       30.15R
ELBOW LAKE     FAIR      54  53  94 SW6       30.14R
WADENA         FAIR      52  52 100 SW3       30.11R
GLENWOOD       FAIR      57  55  94 W7        30.14S
APPLETON       FAIR      55  54  94 SW5       30.15R
BENSON         FAIR      54  52  94 CALM      30.14S
ORTONVILLE     FAIR      55  52  88 CALM      30.15R
MADISON        FAIR      54  52  94 SW3       30.16R
WILLMAR        CLOUDY    57  55  94 CALM      30.16S
$$
MNZ033>034-036-042>043-049>051-058-059-260600-
   Central Minnesota

CITY           SKY/WX    TMP DP  RH WIND       PRES   REMARKS
ST CLOUD       FAIR      59  56  89 W6        30.13R
SAUK CENTRE    CLOUDY    56  55  94 W5        30.14R
PAYNESVILLE    CLOUDY    58  58 100 CALM      30.14R
AITKIN         FAIR      55  50  82 SW3       30.09R
PINE RIVER     FAIR      52  50  93 CALM      30.14R
BRAINERD       FAIR      55  53  93 SW3       30.11R
STAPLES        FAIR      54  52  94 SW5       30.11R
LONG PRAIRIE   FAIR      54  52  94 S3        30.14R
LITTLE FALLS   FAIR      54  52  94 CALM      30.13R
LITCHFIELD     FAIR      59  55  88 W3        30.15R
BUFFALO        CLOUDY    60  54  82 W6        30.14R
MAPLE LAKE     MOCLDY    60  56  88 W3        30.14R
HUTCHINSON     FAIR      54  53  97 CALM      30.16R
$$
MNZ037-044-045-052-053-260600-
   East Central Minnesota

CITY           SKY/WX    TMP DP  RH WIND       PRES   REMARKS
PRINCETON        N/A     61  55  82 W3        30.12R
MORA           FAIR      55  52  88 W5        30.12R
CAMBRIDGE      CLOUDY    63  54  72 CALM      30.09S
RUSH CITY      FAIR      59  55  87 CALM      30.10R
MOOSE LAKE     CLOUDY    55  52  88 W3        30.07R
HINCKLEY       FAIR      55  55 100 W5        30.09S
CLOQUET        FAIR      55  52  88 W5        30.07R
MCGREGOR       FAIR      55  52  88 W3        30.09R
$$
MNZ071>073-080-081-089-090-097-098-260600-
   Southwest Minnesota

CITY           SKY/WX    TMP DP  RH WIND       PRES   REMARKS
MONTEVIDEO     FAIR      55  52  88 W3        30.17S
GRANITE FALLS  FAIR      54  53  95 SW3       30.18R
CANBY          FAIR      54  51  89 W3        30.17S
MARSHALL       FAIR      54  52  93 CALM      30.17S
REDWOOD FALLS  FAIR      59  52  77 SW3       30.15S
OLIVIA         FAIR      54  52  94 SW3       30.15R
PIPESTONE      FAIR      55  52  88 CALM      30.18S
WINDOM         FAIR      55  54  94 CALM      30.17S
WORTHINGTON    FAIR      55  53  93 NW5       30.19
JACKSON        FAIR      57  52  82 CALM      30.18R
TRACY          FAIR      57  55  92 SW3       30.17S
SLAYTON        FAIR      54  52  94 CALM      30.19S
$$
MNZ065>067-074>077-082>085-091>093-260600-
   South Central Minnesota

CITY           SKY/WX    TMP DP  RH WIND       PRES   REMARKS
MANKATO        FAIR      59  54  82 W3        30.15S
NEW ULM          N/A     55  54  94 W5        30.16S
FAIRMONT       FAIR      58  56  93 CALM      30.17R
GLENCOE        FAIR      58  56  93 SW3       30.14R
FARIBAULT      FAIR      55  54  94 CALM      30.14S
OWATONNA       FAIR      59  55  88 SW3       30.15R
WASECA         FAIR      55  55 100 CALM      30.17R
ALBERT LEA     FAIR      59  57  94 CALM      30.16R
$$
MNZ078>079-086>088-094>096-260600-
   Southeast Minnesota

CITY           SKY/WX    TMP DP  RH WIND       PRES   REMARKS
ROCHESTER      FAIR      59  57  93 W6        30.15S
RED WING       FAIR      57  55  94 CALM      30.11R
STANTON        FAIR      57  54  88 CALM      30.12S
DODGE CENTER   FAIR      57  54  88 CALM      30.15R
WINONA         FAIR      61  57  88 CALM      30.12S
AUSTIN         FAIR      61  57  88 CALM      30.15R
PRESTON        FAIR      58  55  89 NW6       30.15S
$$
ABBREVIATIONS USED IN REMARKS
   TC - TEMPERATURES IN CELSIUS
  WCI - WIND CHILL INDEX
   HX - HEAT INDEX
  VSB - VISIBILITY
$$




USA.gov is the U.S. government's official web portal to all federal, state and local government web resources and services.